Weather History for KCAR - January, 2014

Change the Weather History Date:

Sunday, January 19, 2014

  Actual Average Record
Temperature  
Mean Temperature 22 °F 9 °F  
Max Temperature 28 °F 19 °F 51 °F (1996)
Min Temperature 16 °F 0 °F -32 °F (1997)
Degree Days  
Heating Degree Days 43 56  
Month to date heating degree days 917 1037  
Since 1 July heating degree days 4482 4631  
Cooling Degree Days 0 0  
Month to date cooling degree days 0 0  
Year to date cooling degree days 0 0  
Moisture  
Dew Point 22 °F    
Average Humidity 90    
Maximum Humidity 100    
Minimum Humidity 80    
Precipitation  
Precipitation 0.11 in 0.09 in 0.83 in (2004)
Month to date precipitation 3.08 1.68  
Year to date precipitation 3.08 1.68  
Snow  
Snow 1.30 in 0.80 in 12.80 in (2004)
Month to date snowfall 4.2 15.4  
Since 1 July snowfall 59.1 50.5  
Snow Depth 8.00 in    
Sea Level Pressure  
Sea Level Pressure 29.39 in    
Wind  
Wind Speed 4 mph (South)    
Max Wind Speed 14 mph    
Max Gust Speed 21 mph    
Visibility 3 miles    
Events Fog , Snow    
T = Trace of Precipitation, MM = Missing Value Source: NWS Daily Summary

Daily Weather History Graph

Daily Weather History Graph

Search for Another Location

Airport or City:

Trip Planner

Search our weather history database for the weather conditions in past years. The results will help you decide how hot, cold, wet, or windy it might be!

Date:

Astronomy

Jan. 19, 2014 Rise Set
Actual Time 7:10 AM EST 4:15 PM EST
Civil Twilight 6:36 AM EST 4:49 PM EST
Nautical Twilight 5:58 AM EST 5:27 PM EST
Astronomical Twilight 5:22 AM EST 6:03 PM EST
Moon 8:07 PM EST (1/19) 8:23 AM EST (1/19)
Length of Visible Light 10h 13m
Length of Day
9h 05m
Waning Gibbous, 89% of the Moon is Illuminated
Jan 19
Waning Gibbous
Jan 24
Last Quarter
Jan 30
New
Feb 6
First Quarter
Feb 14
Full

Hourly Weather History & Observations

Time (EST) Temp. Windchill Dew Point Humidity Pressure Visibility Wind Dir Wind Speed Gust Speed Precip Events Conditions
12:15 AM 19.9 °F - 18.0 °F 92% 29.58 in 5.0 mi Calm Calm - N/A   Mostly Cloudy
12:27 AM 19.0 °F - 17.1 °F 92% 29.59 in 4.0 mi Calm Calm - N/A   Mostly Cloudy
12:51 AM 21.2 °F 16.4 °F 17.6 °F 86% 29.58 in 2.0 mi West 3.5 mph - N/A   Mostly Cloudy
12:54 AM 19.9 °F 14.9 °F 18.0 °F 92% 29.62 in 4.0 mi West 3.5 mph - N/A   Mostly Cloudy
1:01 AM 19.0 °F - 17.1 °F 92% 29.58 in 7.0 mi Calm Calm - N/A   Scattered Clouds
1:54 AM 17.1 °F 11.7 °F 15.1 °F 92% 29.64 in 7.0 mi West 3.5 mph - N/A   Clear
2:50 AM 17.6 °F 12.3 °F 15.8 °F 93% 29.60 in 2.5 mi NE 3.5 mph - N/A   Scattered Clouds
2:52 AM 17.6 °F 12.3 °F 15.8 °F 93% 29.60 in 1.2 mi NE 3.5 mph - N/A   Scattered Clouds
2:54 AM 18.0 °F 12.7 °F 15.1 °F 88% 29.63 in 0.5 mi NE 3.5 mph - N/A Fog Light Freezing Fog
3:02 AM 17.1 °F - 16.0 °F 96% 29.60 in 0.2 mi Calm Calm - N/A Fog Light Freezing Fog
3:54 AM 18.0 °F - 17.1 °F 96% 29.64 in 0.2 mi Calm Calm - N/A Fog Light Freezing Fog
4:54 AM 17.1 °F - 16.0 °F 96% 29.64 in 0.2 mi Calm Calm - N/A Fog Light Freezing Fog
5:54 AM 17.1 °F - 15.1 °F 92% 29.64 in 0.2 mi Calm Calm - N/A Fog Light Freezing Fog
6:54 AM 16.0 °F - 14.0 °F 92% 29.62 in 0.2 mi Calm Calm - N/A Fog Light Freezing Fog
7:46 AM 17.1 °F - 14.0 °F 88% 29.58 in 1.2 mi Calm Calm - N/A   Overcast
7:50 AM 17.6 °F - 12.2 °F 79% 29.58 in 2.0 mi Calm Calm - N/A   Overcast
7:54 AM 17.1 °F - 12.9 °F 84% 29.62 in 4.0 mi Calm Calm - N/A   Overcast
8:54 AM 19.9 °F - 18.0 °F 92% 29.60 in 5.0 mi Calm Calm - N/A   Overcast
9:54 AM 21.0 °F - 18.0 °F 88% 29.58 in 7.0 mi Calm Calm - N/A   Overcast
10:54 AM 23.0 °F - 21.0 °F 92% 29.54 in 8.0 mi Calm Calm - 0.00 in   Overcast
11:35 AM 25.0 °F 19.3 °F 21.9 °F 88% 29.46 in 1.8 mi SSE 4.6 mph - 0.00 in Snow Light Snow
11:40 AM 25.0 °F 19.3 °F 21.9 °F 88% 29.46 in 1.2 mi South 4.6 mph - 0.00 in Snow Light Snow
11:54 AM 26.1 °F 21.9 °F 23.0 °F 88% 29.48 in 0.8 mi SSE 3.5 mph - 0.00 in Snow Light Snow
12:24 PM 27.0 °F 21.6 °F 24.1 °F 89% 29.42 in 0.8 mi SSE 4.6 mph - 0.01 in Snow Light Snow
12:44 PM 27.0 °F 23.0 °F 25.0 °F 92% 29.40 in 0.8 mi South 3.5 mph - 0.02 in Snow Light Snow
12:54 PM 27.0 °F 21.6 °F 25.0 °F 92% 29.43 in 0.5 mi SSE 4.6 mph - 0.02 in Fog , Snow Light Snow
1:08 PM 27.0 °F 21.6 °F 25.0 °F 92% 29.38 in 0.5 mi SSE 4.6 mph - 0.01 in Fog , Snow Light Snow
1:35 PM 27.0 °F 21.6 °F 25.0 °F 92% 29.36 in 0.8 mi SE 4.6 mph - 0.02 in Snow Light Snow
1:45 PM 28.0 °F 22.8 °F 25.0 °F 88% 29.35 in 1.0 mi SE 4.6 mph - 0.02 in Snow Light Snow
1:54 PM 28.0 °F 22.8 °F 25.0 °F 88% 29.39 in 1.0 mi SSE 4.6 mph - 0.02 in Snow Light Snow
2:03 PM 28.0 °F 24.2 °F 25.0 °F 88% 29.34 in 0.8 mi SE 3.5 mph - 0.00 in Snow Light Snow
2:19 PM 28.0 °F 21.7 °F 25.0 °F 88% 29.33 in 1.0 mi SE 5.8 mph - 0.01 in Snow Light Snow
2:25 PM 27.0 °F 19.5 °F 25.0 °F 92% 29.33 in 1.0 mi SE 6.9 mph - 0.01 in Snow Light Snow
2:36 PM 28.0 °F 22.8 °F 26.1 °F 92% 29.32 in 1.0 mi ESE 4.6 mph - 0.01 in Snow Light Snow
2:54 PM 28.0 °F 21.7 °F 25.0 °F 88% 29.34 in 1.0 mi ESE 5.8 mph - 0.02 in Snow Light Snow
3:11 PM 27.0 °F 21.6 °F 25.0 °F 92% 29.29 in 1.5 mi ESE 4.6 mph - 0.00 in Snow Light Snow
3:26 PM 27.0 °F 20.5 °F 25.0 °F 92% 29.28 in 1.5 mi ESE 5.8 mph - 0.00 in Snow Light Snow
3:34 PM 27.0 °F 20.5 °F 25.0 °F 92% 29.28 in 1.2 mi SE 5.8 mph - 0.00 in Snow Light Snow
3:41 PM 27.0 °F 20.5 °F 25.0 °F 92% 29.28 in 1.2 mi SE 5.8 mph - 0.01 in Snow Light Snow
3:52 PM 26.6 °F 22.6 °F 24.8 °F 93% 29.27 in 2.0 mi ESE 3.5 mph - 0.01 in Snow Light Snow
3:54 PM 27.0 °F 21.6 °F 25.0 °F 92% 29.31 in 2.5 mi ESE 4.6 mph - 0.01 in Snow Light Snow
4:02 PM 27.0 °F 23.0 °F 25.0 °F 92% 29.27 in 4.0 mi SE 3.5 mph - 0.00 in   Overcast
4:16 PM 27.0 °F - 25.0 °F 92% 29.27 in 5.0 mi Calm Calm - 0.00 in   Overcast
4:40 PM 27.0 °F 21.6 °F 25.0 °F 92% 29.25 in 1.8 mi SE 4.6 mph - 0.00 in Snow Light Snow
4:47 PM 27.0 °F 21.6 °F 25.0 °F 92% 29.25 in 1.5 mi SE 4.6 mph - 0.00 in Snow Light Snow
4:54 PM 27.0 °F 23.0 °F 25.0 °F 92% 29.29 in 2.0 mi SE 3.5 mph - 0.00 in Snow Light Snow
5:09 PM 27.0 °F 23.0 °F 25.0 °F 92% 29.24 in 1.8 mi SSE 3.5 mph - 0.00 in Snow Light Snow
5:21 PM 27.0 °F 23.0 °F 25.0 °F 92% 29.24 in 2.0 mi SSE 3.5 mph - 0.00 in Snow Light Snow
5:32 PM 27.0 °F 21.6 °F 25.0 °F 92% 29.23 in 1.8 mi SSE 4.6 mph - 0.01 in Snow Light Snow
5:34 PM 27.0 °F 21.6 °F 24.1 °F 89% 29.23 in 2.0 mi SSE 4.6 mph - 0.01 in Snow Light Snow
5:54 PM 27.0 °F 21.6 °F 25.0 °F 92% 29.26 in 2.5 mi SSE 4.6 mph - 0.01 in Snow Light Snow
6:02 PM 27.0 °F 21.6 °F 25.0 °F 92% 29.22 in 2.5 mi SSE 4.6 mph - 0.00 in Snow Light Snow
6:18 PM 27.0 °F 21.6 °F 24.1 °F 89% 29.22 in 2.0 mi South 4.6 mph - 0.00 in Snow Light Snow
6:49 PM 26.6 °F 20.0 °F 24.8 °F 93% 29.22 in 1.8 mi South 5.8 mph - 0.01 in Snow Light Snow
6:54 PM 26.1 °F 20.5 °F 25.0 °F 96% 29.25 in 1.5 mi South 4.6 mph - 0.01 in Snow Light Snow
7:06 PM 26.1 °F 19.4 °F 24.1 °F 92% 29.21 in 3.0 mi SSW 5.8 mph - 0.00 in Snow Light Snow
7:18 PM 26.1 °F 19.4 °F 24.1 °F 92% 29.20 in 9.0 mi South 5.8 mph - 0.00 in   Overcast
7:47 PM 26.1 °F 20.5 °F 24.1 °F 92% 29.20 in 2.5 mi SSW 4.6 mph - 0.00 in Snow Light Snow
7:51 PM 26.6 °F 20.0 °F 24.8 °F 93% 29.20 in 1.2 mi SW 5.8 mph - 0.00 in Snow Light Snow
7:54 PM 26.1 °F 18.4 °F 24.1 °F 92% 29.24 in 1.0 mi SW 6.9 mph - 0.01 in Snow Light Snow
8:01 PM 26.1 °F 14.5 °F 24.1 °F 92% 29.21 in 0.8 mi WSW 13.8 mph 18.4 mph 0.00 in Snow Light Snow
8:10 PM 26.1 °F 16.2 °F 24.1 °F 92% 29.21 in 1.0 mi WSW 10.4 mph 21.9 mph 0.01 in Snow Light Snow
8:14 PM 26.1 °F 16.2 °F 24.1 °F 92% 29.21 in 2.0 mi WSW 10.4 mph - 0.01 in Snow Light Snow
8:19 PM 26.1 °F 17.6 °F 24.1 °F 92% 29.21 in 4.0 mi WSW 8.1 mph - 0.01 in Snow Light Snow
8:54 PM 25.0 °F 16.3 °F 23.0 °F 92% 29.25 in 8.0 mi WSW 8.1 mph - 0.01 in Snow Light Snow
9:52 PM 24.8 °F 15.3 °F 21.2 °F 86% 29.22 in 10.0 mi WSW 9.2 mph - 0.00 in   Mostly Cloudy
9:54 PM 24.1 °F 12.5 °F 21.0 °F 88% 29.26 in 10.0 mi WSW 12.7 mph 16.1 mph 0.00 in   Mostly Cloudy
10:02 PM 23.0 °F 12.4 °F 19.9 °F 88% 29.23 in 10.0 mi WSW 10.4 mph - N/A   Mostly Cloudy
10:54 PM 21.0 °F 12.4 °F 17.1 °F 85% 29.27 in 10.0 mi SW 6.9 mph - N/A   Clear
11:54 PM 19.0 °F 9.0 °F 15.1 °F 85% 29.26 in 10.0 mi SSW 8.1 mph - N/A   Clear